Weather Roundup
Issued by NWS

Home | Current Version | Previous Version | Graphics & Text | Print | Product List | Glossary Off
Versions: 1 2 3 4 5 6 7 8 9 10 11 12 13 14 15 16 17 18 19 20 21 22 23 24 25 26 27 28 29 30 31 32 33 34 35 36 37 38 39 40 41 42 43 44 45 46 47 48 49 50

000
NZUS93 KARX 301159
HRRWXR

CURRENT HOURLY OBSERVATIONS ACROSS
MUCH OF THE UPPER MISSISSIPPI VALLEY
NATIONAL WEATHER SERVICE LA CROSSE WI
700 AM CDT SUN AUG 30 2015


...SOUTHEAST MINNESOTA...


CITY           SKY/WX    TMP DP  RH WIND       PRES   REMARKS
ROCHESTER      MOCLDY    56  55  97 SE3       30.06R FOG
ROCHESTER/MAYO CLOUDY    58  58 100 SE5       30.05R
WINONA         FOG       59  59 100 CALM      30.05S VSB 1/4
AUSTIN         DRZL/FOG  61  59  94 S5        30.05R VSB 1/4
ALBERT LEA     CLEAR     57  57 100 S3        30.04R FOG
DODGE CENTER   CLOUDY    61  61 100 SW13      30.04S FOG
PRESTON          N/A     56  55  96 S3        30.07R FOG
OWATONNA       CLEAR     61  57  88 S5        30.04R FOG
FARIBAULT      CLOUDY    61  61 100 S7        30.03R
$$

...ELSEWHERE IN MINNESOTA...


CITY           SKY/WX    TMP DP  RH WIND       PRES   REMARKS
MINNEAPOLIS    CLOUDY    63  60  90 S8        30.00R
INTNL FALLS    MOCLDY    63  61  93 S7        29.84S
DULUTH         CLOUDY    63  61  93 SW13      29.96R
RED WING       CLOUDY    63  61  94 S5        30.02S FOG
REDWOOD FALLS  CLOUDY    62  60  93 S12       29.98R
MANKATO        CLOUDY    61  57  88 SW7       30.02R
WORTHINGTON    CLOUDY    61  57  88 S12       30.02S
FAIRMONT       CLOUDY    61  55  82 S10       30.01S
$$

...SOUTHWEST WISCONSIN...


CITY           SKY/WX    TMP DP  RH WIND       PRES   REMARKS
LA CROSSE      FOG       59  59 100 E6        30.05R VSB<1/4
PRAIRIE DU CHI FOG       58  57  96 CALM      30.06S VSB 1/4
BOSCOBEL       FOG       61  59  93 CALM      30.07R VSB<1/4
LONE ROCK      FOG       61  60  97 CALM      30.07R VSB<1/4
PLATTEVILLE    CLEAR     61  59  94 E3        30.07R
FORT MC COY    CLEAR     52  51  97 CALM      30.07R
CAMP DOUGLAS   FOG       52  52 100 S1        30.06S VSB 1/2
VIROQUA          N/A     58  58 100 S3        30.07R
WIS DELLS      FOG       59  57  95 CALM      30.07R VSB 1/4
$$

...ELSEWHERE IN WISCONSIN...


CITY           SKY/WX    TMP DP  RH WIND       PRES   REMARKS
MILWAUKEE      FOG       63  62  97 N5        30.06R VSB 1/4
MADISON        CLOUDY    62  60  93 CALM      30.07R
GREEN BAY      FOG       56  55  97 CALM      30.07R VSB 1/4
EAU CLAIRE     CLEAR     57  55  93 CALM      30.04R
BLACK RVR FLS  CLOUDY    50  50 100 CALM      30.05S FOG
MEDFORD        FOG       50  50 100 CALM      30.06R VSB<1/4
WAUSAU         FOG       52  51  97 CALM      30.06R VSB 1/4
WIS RAPIDS     PTCLDY    55  53  93 CALM      30.08R FOG
MARSHFIELD     FOG       54  52  93 CALM      30.07R VSB 1/4
RICE LAKE      CLOUDY    58  56  95 CALM      30.04R FOG
$$

...NORTHEAST IOWA...


CITY           SKY/WX    TMP DP  RH WIND       PRES   REMARKS
DECORAH        CLOUDY    57  57 100 S3        30.06R
MASON CITY     FOG       56  56 100 S5        30.06S VSB 1/4
CHARLES CITY   FOG       57  57 100 SE3       30.07R VSB<1/4
OELWEIN          N/A     59  59 100 SE3       30.07R FOG
$$

...ELSEWHERE IN IOWA...


CITY           SKY/WX    TMP DP  RH WIND       PRES   REMARKS
DES MOINES     FOG       62  59  90 CALM      30.05R VSB 1/4
IOWA CITY      FOG       64  63  96 CALM      30.07R VSB 1/4
FORT DODGE     CLOUDY    63  59  88 CALM      30.05S
$$

...NORTHERN ILLINOIS...


CITY           SKY/WX    TMP DP  RH WIND       PRES   REMARKS
CHICAGO-OHARE  CLOUDY    65  64  97 CALM      30.06R FOG
CHICAGO-MIDWAY CLOUDY    67  63  87 CALM      30.06R FOG
MOLINE         FOG       63  61  93 CALM      30.06R VSB<1/4
ROCKFORD       CLOUDY    65  62  90 N5        30.08R FOG
PEORIA         FOG       69  66  90 NE3       30.05R VSB 1/8
$$

NOTE: "FAIR" INDICATES FEW OR NO CLOUDS BELOW 12,000 FEET WITH NO
SIGNIFICANT WEATHER AND/OR OBSTRUCTIONS TO VISIBILITY. WIND
SPEEDS ARE IN MILES-PER-HOUR.



USA.gov is the U.S. government's official web portal to all federal, state and local government web resources and services.